(487994) = 2006 DK202 = 2015 TU336

Discovered at Catalina on 2006-02-21 by CSS.

Orbit

Orbit type: Main Belt

Note: WebGL enabled browser required.

epoch2023-02-25.0
epoch JD2460000.5
perihelion date2021-12-19.84342
perihelion JD2459568.34342
argument of perihelion (°)61.41063
ascending node (°)37.93601
inclination (°)9.77951
eccentricity0.2351482
perihelion distance (AU)2.3618341
Tisserand w.r.t. Jupiter3.2
ΔV w.r.t. Earth (km/sec)10.1
semimajor axis (AU)3.0879631
mean anomaly (°)78.49406
mean daily motion (°/day)0.18163340
aphelion distance (AU)3.814
period (years)5.43
P-vector [x]-0.15456268
P-vector [y]0.83674133
P-vector [z]0.52533259
Q-vector [x]-0.98244889
Q-vector [y]-0.18636918
Q-vector [z]0.00779100
absolute magnitude16.51
phase slope0.15
uncertainty0
referenceMPO 745323
observations used238
oppositions8
arc length (days)6758
first opposition used2004
last opposition used2023
residual rms (arc-secs)0.74
perturbers coarse indicatorM-v
perturbers precise indicator003Ek
first observation date used2004-11-11.0
last observation date used2023-05-14.0
computer nameMPCLINUX
JD of orbit computation2457815.726918
perihelion JD uncertainty (days)2.9334E-04
argument of perihelion uncertainty (°)7.1209E-05
ascending node uncertainty (°)2.7308E-05
inclination uncertainty (°)9.1335E-06
eccentricity uncertainty 3.3090E-08
perihelion distance uncertainty (AU)1.0744E-07
Minimum Orbit Intersection Distances (in AU)
for orbit epoch: 2460000.5, reference: E2023-JF5
Mercury2.04967
Venus1.65091
Earth1.39612
Mars0.7981
Jupiter1.53721
Saturn6.33668
Uranus15.3834
Neptune26.5506

Observations

238 total observations over interval: 2004 11 11.08840 – 2023 05 14.342911
These data are available for download (format description).

Date (UT) J2000 RA J2000 Dec Magn Location Ref
2004 11 11.08840 00 59 40.74 +02 49 19.4 20.8 V 691 – Steward Observatory, Kitt Peak-Spacewatch MPS 645700
2004 11 11.10508 00 59 40.11 +02 49 20.6 20.9 V 691 – Steward Observatory, Kitt Peak-Spacewatch MPS 645700
2004 11 11.12450 00 59 39.40 +02 49 21.3 20.6 V 691 – Steward Observatory, Kitt Peak-Spacewatch MPS 645700
2006 02 21.35383 10 56 56.68 +22 09 58.2 20.1 V 703 – Catalina Sky Survey MPS 166373
2006 02 21.35975 10 56 56.25 +22 09 59.2 19.8 V 703 – Catalina Sky Survey MPS 166373
2006 02 21.36565 10 56 55.96 +22 10 00.1 20.5 V 703 – Catalina Sky Survey MPS 166373
2006 02 21.37154 10 56 55.71 +22 10 01.2 19.4 V 703 – Catalina Sky Survey MPS 166373
2006 02 28.31098 10 50 36.99 +22 32 10.2 20.1 V 703 – Catalina Sky Survey MPS 166373
2006 02 28.31586 10 50 36.81 +22 32 10.1 20.2 V 703 – Catalina Sky Survey MPS 166373
2006 02 28.32077 10 50 36.49 +22 32 10.9 19.6 V 703 – Catalina Sky Survey MPS 166373
2006 02 28.32566 10 50 36.24 +22 32 11.5 19.7 V 703 – Catalina Sky Survey MPS 166373
2012 04 30.27140 13 26 54.31 -06 23 45.5 20.8 V G96 – Mt. Lemmon Survey MPS 645700
2012 04 30.27666 13 26 54.06 -06 23 45.0 20.5 V G96 – Mt. Lemmon Survey MPS 645700
2012 04 30.28193 13 26 53.80 -06 23 45.0 20.3 V G96 – Mt. Lemmon Survey MPS 645700
2012 04 30.28718 13 26 53.55 -06 23 44.3 20.6 V G96 – Mt. Lemmon Survey MPS 645700
2012 05 20.24126 13 14 58.27 -06 10 49.1 20.7 V G96 – Mt. Lemmon Survey MPS 645700
2012 05 20.24824 13 14 58.12 -06 10 49.2 21.5 V G96 – Mt. Lemmon Survey MPS 645700
2012 05 20.25520 13 14 57.91 -06 10 49.1 22.2 V G96 – Mt. Lemmon Survey MPS 645700
2012 05 20.26215 13 14 57.76 -06 10 49.0 21.2 V G96 – Mt. Lemmon Survey MPS 645700
2015 10 02.29205 02 07 48.56 +09 06 35.9 20.3 V 691 – Steward Observatory, Kitt Peak-Spacewatch MPS 645700
2015 10 02.31090 02 07 47.83 +09 06 34.6 20.3 V 691 – Steward Observatory, Kitt Peak-Spacewatch MPS 645700
2015 10 02.32739 02 07 47.05 +09 06 34.8 20.1 V 691 – Steward Observatory, Kitt Peak-Spacewatch MPS 645700
2015 10 10.32119 02 01 52.26 +08 58 48.5   691 – Steward Observatory, Kitt Peak-Spacewatch MPS 645700
2015 10 10.33767 02 01 51.43 +08 58 47.2   691 – Steward Observatory, Kitt Peak-Spacewatch MPS 645700
2015 10 10.38174 02 01 49.23 +08 58 44.4   691 – Steward Observatory, Kitt Peak-Spacewatch MPS 645700
2015 10 10.38551 02 01 49.283 +08 58 44.86 20.2 w F51 – Pan-STARRS 1, Haleakala MPS 645700
2015 10 10.39777 02 01 48.666 +08 58 44.03 20.3 w F51 – Pan-STARRS 1, Haleakala MPS 645700
2015 10 10.41001 02 01 48.045 +08 58 43.24 20.2 w F51 – Pan-STARRS 1, Haleakala MPS 645700
2015 10 10.42236 02 01 47.426 +08 58 42.36 20.2 w F51 – Pan-STARRS 1, Haleakala MPS 645700
2015 10 14.75088 01 58 09.88 +08 53 26.5 20.3 R D29 – Purple Mountain Observatory, XuYi Station MPS 639453
2015 10 14.76499 01 58 09.21 +08 53 25.9 20.7 R D29 – Purple Mountain Observatory, XuYi Station MPS 639453
2015 10 14.77910 01 58 08.43 +08 53 25.4 20.4 R D29 – Purple Mountain Observatory, XuYi Station MPS 639453
2015 10 15.33191 01 57 39.85 +08 52 42.8 20.1 V G96 – Mt. Lemmon Survey MPS 645700
2015 10 15.33584 01 57 39.64 +08 52 42.4 20.2 V G96 – Mt. Lemmon Survey MPS 645700
2015 10 15.34505 01 57 39.14 +08 52 41.9 20.1 V G96 – Mt. Lemmon Survey MPS 645700
2015 10 15.34899 01 57 38.91 +08 52 41.4 20.0 V G96 – Mt. Lemmon Survey MPS 645700
2015 10 16.30359 01 56 48.96 +08 51 28.3   691 – Steward Observatory, Kitt Peak-Spacewatch MPS 639453
2015 10 16.33237 01 56 47.33 +08 51 25.1   691 – Steward Observatory, Kitt Peak-Spacewatch MPS 639453
2015 10 16.34177 01 56 46.88 +08 51 25.2   691 – Steward Observatory, Kitt Peak-Spacewatch MPS 639453
2015 10 18.40934 01 54 56.953 +08 48 44.82 20.0 w F51 – Pan-STARRS 1, Haleakala MPS 639453
2015 10 18.42051 01 54 56.335 +08 48 44.01 20.1 w F51 – Pan-STARRS 1, Haleakala MPS 639453
2015 10 18.43172 01 54 55.712 +08 48 43.15 20.1 w F51 – Pan-STARRS 1, Haleakala MPS 639453
2015 10 18.44293 01 54 55.090 +08 48 42.27 20.0 w F51 – Pan-STARRS 1, Haleakala MPS 639453
2015 10 23.33014 01 50 28.89 +08 42 18.7 19.8 V G96 – Mt. Lemmon Survey MPS 639453
2015 10 23.33581 01 50 28.56 +08 42 18.4 19.9 V G96 – Mt. Lemmon Survey MPS 639453
2015 10 23.34153 01 50 28.25 +08 42 17.8 19.9 V G96 – Mt. Lemmon Survey MPS 639453
2015 10 23.34719 01 50 27.91 +08 42 17.6 20.0 V G96 – Mt. Lemmon Survey MPS 639453
2015 11 02.41361 01 41 19.717 +08 30 50.23 20.0 i F51 – Pan-STARRS 1, Haleakala MPS 642307
2015 11 02.42546 01 41 19.069 +08 30 49.46 19.9 i F51 – Pan-STARRS 1, Haleakala MPS 642307
2015 11 02.43724 01 41 18.431 +08 30 49.03 19.7 i F51 – Pan-STARRS 1, Haleakala MPS 642307
2015 11 02.44907 01 41 17.766 +08 30 48.22 19.8 i F51 – Pan-STARRS 1, Haleakala MPS 642307
2015 11 04.98914 01 39 05.28 +08 28 37.6 20.0   J43 – Oukaimeden Observatory, Marrakech MPS 642307
2015 11 04.99867 01 39 04.80 +08 28 37.0 20.3   J43 – Oukaimeden Observatory, Marrakech MPS 642307
2015 11 05.00819 01 39 04.28 +08 28 37.0 20.1   J43 – Oukaimeden Observatory, Marrakech MPS 642307
2015 11 05.01772 01 39 03.79 +08 28 36.5 20.2   J43 – Oukaimeden Observatory, Marrakech MPS 642307
2015 11 12.19050 01 33 16.04 +08 24 59.1 20.3 r G45 – Space Surveillance Telescope, Atom Site MPS 645700
2015 11 12.20606 01 33 15.33 +08 24 59.3 20.3 r G45 – Space Surveillance Telescope, Atom Site MPS 645700
2015 11 12.20778 01 33 15.23 +08 24 58.9 20.4 r G45 – Space Surveillance Telescope, Atom Site MPS 645700
2015 11 12.21906 01 33 14.73 +08 24 59.4 20.6 r G45 – Space Surveillance Telescope, Atom Site MPS 645700
2015 11 12.22415 01 33 14.51 +08 24 59.1 20.9 r G45 – Space Surveillance Telescope, Atom Site MPS 645700
2015 11 12.23014 01 33 14.21 +08 24 59.5 20.8 r G45 – Space Surveillance Telescope, Atom Site MPS 645700
2015 12 11.12859 01 21 06.96 +09 06 03.5 21.0 V G96 – Mt. Lemmon Survey MPS 657420
2015 12 11.13269 01 21 06.93 +09 06 04.7 21.2 V G96 – Mt. Lemmon Survey MPS 657420
2015 12 11.14088 01 21 06.88 +09 06 06.2 21.0 V G96 – Mt. Lemmon Survey MPS 657420
2015 12 14.32525 01 21 06.656 +09 16 56.56 21.0 w F51 – Pan-STARRS 1, Haleakala MPS 659922
2015 12 14.33865 01 21 06.674 +09 16 59.63 21.1 w F51 – Pan-STARRS 1, Haleakala MPS 659922
2015 12 14.35202 01 21 06.679 +09 17 02.42 20.9 w F51 – Pan-STARRS 1, Haleakala MPS 659922
2015 12 14.36534 01 21 06.709 +09 17 05.38 21.0 w F51 – Pan-STARRS 1, Haleakala MPS 659922
2015 12 31.28759 01 25 34.700 +10 35 01.13 21.2 w F51 – Pan-STARRS 1, Haleakala MPS 663995
2015 12 31.29878 01 25 34.993 +10 35 04.70 21.1 w F51 – Pan-STARRS 1, Haleakala MPS 663995
2017 01 07.46284 11 45 33.57 +14 24 48.5 20.9 V G96 – Mt. Lemmon Survey MPS 778809
2017 01 07.46920 11 45 33.68 +14 24 49.1 20.7 V G96 – Mt. Lemmon Survey MPS 778809
2017 01 07.47573 11 45 33.79 +14 24 48.8 20.8 V G96 – Mt. Lemmon Survey MPS 778809
2017 01 07.48219 11 45 33.89 +14 24 49.9 21.6 V G96 – Mt. Lemmon Survey MPS 778809
2017 02 16.53871 11 37 09.158 +16 31 42.51 20.2 i F51 – Pan-STARRS 1, Haleakala MPS 767276
2017 02 16.55148 11 37 08.584 +16 31 45.76 20.0 i F51 – Pan-STARRS 1, Haleakala MPS 767276
2017 02 16.56417 11 37 08.024 +16 31 48.99 20.0 i F51 – Pan-STARRS 1, Haleakala MPS 767276
2017 02 16.57688 11 37 07.453 +16 31 52.33 20.1 i F51 – Pan-STARRS 1, Haleakala MPS 767276
2017 02 22.33731 11 32 43.81 +16 56 07.5 20.3 r G45 – Space Surveillance Telescope, Atom Site MPS 768324
2017 02 22.34416 11 32 43.52 +16 56 09.1 19.9 r G45 – Space Surveillance Telescope, Atom Site MPS 768324
2017 02 22.35033 11 32 43.19 +16 56 10.8 20.1 r G45 – Space Surveillance Telescope, Atom Site MPS 768324
2017 02 22.35700 11 32 42.83 +16 56 12.2 20.3 r G45 – Space Surveillance Telescope, Atom Site MPS 768324
2017 02 22.36314 11 32 42.52 +16 56 14.1 19.9 r G45 – Space Surveillance Telescope, Atom Site MPS 768324
2017 02 22.37271 11 32 42.07 +16 56 15.9 20.4 V G96 – Mt. Lemmon Survey MPS 768324
2017 02 22.37412 11 32 41.97 +16 56 16.7 19.9 V G96 – Mt. Lemmon Survey MPS 768324
2017 02 22.37702 11 32 41.85 +16 56 17.5 20.1 V G96 – Mt. Lemmon Survey MPS 768324
2017 02 22.37843 11 32 41.77 +16 56 17.7 19.9 V G96 – Mt. Lemmon Survey MPS 768324
2017 02 22.37893 11 32 41.987 +16 56 18.35 20.1 w F51 – Pan-STARRS 1, Haleakala MPS 768324
